#timestamp,LO_Frequency,Hit,StdDev 
1579485615.8,286047004.1,N
1579485635.6,286047001.5,N
1579485655.5,286047002.1,N
1579485675.3,286047000.3,N
1579485695.1,286047000.4,N
1579485715.9,286047002.4,N
1579485735.7,286047002.5,N
1579485755.6,286047001.4,N
1579485775.4,286047004.4,N
1579485795.2,286047002.0,N
1579485815.1,286047004.3,N
1579485816.0,286047004.3,N
1579485835.8,286047001.6,N
1579485855.7,286047003.6,N
1579485875.5,286047002.0,N
1579485895.4,286047000.8,N
1579485915.2,286047000.9,N
1579485935.0,286046999.8,N
1579485935.9,286046999.8,N
1579485955.8,286047001.8,N
1579485975.6,286047004.2,N
1579485995.5,286047001.6,N
1579486015.3,286047001.5,N
1579486035.1,286047001.9,N
1579486055.9,286047000.0,N
1579486075.7,286047000.3,N
1579486095.5,286047000.7,N
1579486115.4,286046999.8,N
1579486135.2,286047000.2,N
1579486155.1,286047000.0,N
1579486156.0,286047000.0,N
1579486175.8,286047000.6,N
1579486195.6,286047000.8,N
1579486215.5,286046998.8,N
1579486235.3,286046998.6,N
1579486255.2,286047000.7,N
1579486275.9,286046999.4,N
1579486295.7,286046997.4,N
1579486315.6,286046997.9,N
1579486335.4,286046995.4,N
1579486355.2,286046997.2,N
1579486375.1,286046998.8,N
1579486376.0,286046998.8,N
1579486395.8,286046998.5,N
1579486415.7,286046999.4,N
1579486435.5,286047000.7,N
1579486455.3,286047001.5,N
1579486475.2,286047002.5,N
1579486495.0,286047001.5,N
1579486495.9,286047001.5,N
1579486515.8,286047000.0,N
1579486535.6,286047000.3,N
1579486555.4,286047002.8,N
1579486575.3,286047000.3,N
1579486595.1,286047001.1,N
1579486615.8,286047001.1,N
1579486635.7,286047002.6,N
1579486655.5,286047004.3,N
1579486675.4,286047002.3,N
1579486695.2,286047001.7,N
1579486715.0,286047001.5,N
1579486715.9,286047001.5,N
1579486735.8,286047002.3,N
1579486755.6,286047002.7,N
1579486775.4,286047002.8,N
1579486795.3,286046999.8,N
1579486815.1,286047002.2,N
1579486835.9,286047002.6,N
1579486855.7,286047002.9,N
1579486875.5,286047001.5,N
1579486895.4,286046999.9,N
1579486915.2,286046998.6,N
1579486935.0,286047000.9,N
1579486935.9,286047000.9,N
1579486955.8,286047001.5,N
1579486975.6,286047004.2,Y
1579486995.5,286047000.4,P
1579487015.3,286047001.5,N
1579487035.1,286047002.8,P
1579487055.9,286047000.7,N
1579487075.7,286046998.3,N
1579487095.6,286047000.9,N
1579487115.4,286047000.5,N
1579487135.2,286047000.8,N
1579487155.1,286047001.2,N
1579487156.0,286047001.2,N
1579487175.8,286046998.4,N
1579487195.6,286046998.9,N
1579487215.5,286046997.1,N
1579487235.3,286046998.1,N
1579487255.2,286046998.7,N
1579487305.9,286046999.1,E
1579487315.9,286046999.0,N
1579487335.7,286047002.3,P
1579487355.5,286047002.6,N
1579487375.4,286047004.0,N
1579487395.2,286047002.6,N
1579487415.0,286047000.7,N
1579487415.9,286047000.7,N
1579487435.8,286047002.1,N
1579487455.6,286047000.1,N
1579487475.5,286047002.2,N
1579487495.3,286047001.7,N
1579487515.1,286047001.7,N
1579487535.9,286047002.6,N
1579487555.7,286047001.7,N
1579487575.5,286047001.4,N
1579487595.4,286047002.5,N
1579487615.2,286047002.4,N
1579487635.1,286047002.6,N
1579487636.0,286047002.6,N
1579487655.8,286047004.3,Y
1579487675.6,286046998.6,P
1579487695.5,286046999.1,N
1579487715.3,286046999.4,N
1579487735.2,286047001.1,N
1579487755.9,286047000.3,N
1579487775.7,286047004.4,Y
1579487795.6,286047002.2,P
1579487815.4,286046999.9,N
1579487835.2,286047000.9,N
1579487855.1,286047000.7,N
1579487856.0,286047000.7,N
1579487875.8,286046998.3,N
1579487895.7,286047000.6,N
1579487915.5,286046998.8,N
1579487935.3,286046998.7,N
1579487955.2,286046998.8,N
1579487975.0,286047000.5,N
1579487975.9,286047000.5,N
1579487995.7,286046998.1,N
1579488015.6,286046998.3,N
1579488035.4,286046998.3,N
1579488055.3,286046996.6,N
1579488075.1,286046999.6,N
1579488076.0,286046999.6,N
1579488095.8,286046999.6,N
1579488115.7,286046997.0,N
1579488135.5,286046998.5,N
1579488155.3,286047000.7,N
1579488175.2,286047002.5,N
1579488195.0,286047004.3,N
1579488195.9,286047004.3,N
1579488215.8,286047000.2,N
1579488235.6,286046998.1,N
1579488255.4,286047000.7,N
1579488275.3,286047000.4,N
1579488295.1,286046998.4,N
1579488315.9,286047000.1,N
1579488335.7,286047000.4,N
1579488355.5,286047001.0,N
1579488375.4,286047000.8,N
1579488395.2,286047001.5,N
1579488415.0,286047004.4,N
1579488415.9,286047004.4,N
1579488435.8,286047001.5,N
1579488455.6,286046999.8,N
1579488475.5,286047000.4,N
1579488495.3,286047001.2,N
1579488515.1,286046999.7,N
1579488535.9,286047000.4,N
1579488555.7,286047000.3,N
1579488575.5,286046998.5,N
1579488595.4,286046998.5,N
1579488615.2,286047000.4,N
1579488635.1,286046998.9,N
1579488636.0,286046998.9,N
1579488655.8,286046999.2,N
1579488675.6,286046999.5,N
1579488695.5,286046998.0,N
1579488715.3,286046997.6,N
1579488735.2,286046997.4,N
1579488755.9,286047000.8,N
1579488775.7,286046998.1,N
1579488795.6,286046998.9,N
1579488815.4,286046998.2,N
1579488835.2,286047001.8,N
1579488855.1,286047003.7,N
1579488856.0,286047003.7,N
1579488875.8,286047001.5,N
1579488895.7,286047002.5,N
1579488915.5,286047003.5,N
1579488935.3,286047004.4,N
1579488955.2,286047001.6,N
1579488975.0,286047003.2,N
1579488975.9,286047003.2,N
1579488995.8,286047000.1,N
1579489015.6,286047002.8,N
1579489035.4,286047002.3,N
1579489055.3,286046999.9,N
1579489075.1,286046999.8,N
1579489095.8,286047000.7,N
1579489115.7,286047000.6,N
1579489135.5,286047000.0,N
1579489155.4,286047000.5,N
1579489175.2,286047001.0,N
1579489195.0,286046998.2,N
1579489195.9,286046998.2,N
